Location: Plainartige
(45.6866°N, 1.7993°E)
Time: 14:23:32
(UTC+00:00)

DIWATA 2B (PO-101) - Visible Passes

Search period start: 02 July 2022 00:00
Search period end: 12 July 2022 00:00
Orbit: 585 x 597 km, 98.0° (Epoch: 01 July)

Date Brightness Start Highest point End Pass type
(mag) Time Alt. Az. Time Alt. Az. Time Alt. Az.
02 Jul ? 00:13:45 10° E 00:15:16 12° ENE 00:16:48 10° NE visible
02 Jul ? 01:47:54 27° S 01:50:09 81° WSW 01:54:24 10° NNW visible
03 Jul ? 00:21:18 10° E 00:23:30 14° ENE 00:25:42 10° NNE visible
03 Jul ? 01:56:21 28° S 01:58:30 66° WSW 02:02:42 10° NNW visible
04 Jul ? 00:29:03 10° ESE 00:31:44 17° ENE 00:34:25 10° NNE visible
04 Jul ? 02:04:48 27° SSW 02:06:51 53° W 02:11:00 10° NNW visible
05 Jul ? 00:36:57 10° ESE 00:39:59 20° ENE 00:43:02 10° NNE visible
05 Jul ? 02:13:16 26° SSW 02:15:12 43° W 02:19:15 10° NNW visible
06 Jul ? 00:45:09 11° ESE 00:48:14 23° ENE 00:51:35 10° NNE visible
06 Jul ? 02:21:43 24° SW 02:23:34 35° W 02:27:28 10° NNW visible
07 Jul ? 00:53:36 14° ESE 00:56:30 28° ENE 01:00:05 10° N visible
07 Jul ? 02:30:10 21° SW 02:31:57 29° W 02:35:39 10° NW visible
08 Jul ? 01:02:03 16° SE 01:04:46 33° ENE 01:08:34 10° N visible
08 Jul ? 02:38:37 19° SW 02:40:19 24° W 02:43:47 10° NW visible
09 Jul ? 01:10:30 19° SE 01:13:03 40° ENE 01:16:59 10° N visible
09 Jul ? 02:47:05 16° WSW 02:48:42 20° W 02:51:52 10° NW visible
10 Jul ? 01:18:58 23° SE 01:21:20 48° ENE 01:25:24 10° N visible
10 Jul ? 02:55:31 14° WSW 02:57:07 17° W 02:59:50 10° NW visible
11 Jul ? 01:27:25 26° SE 01:29:38 59° ENE 01:33:47 10° N visible
11 Jul ? 03:03:59 12° WSW 03:05:31 14° W 03:07:41 10° WNW visible
